ARIANE 5 R/B, 41593

Orbit data source: Space-Track

ARIANE 5 R/B, 41593 is space debris in HEO originally from a launch on Sat, 18 Jun 2016 UTC launched from the French Guiana (FRGUI). Debris objects in space refer to the collection of defunct objects orbiting the Earth. Examples of debris include non-operational satellites, rocket bodies, and fragments generated from explosions, collisions, or faulty payload assembly.

Loading next visibility...
Identifier
41593, 2016-039C
Orbit
HEO
Country
Flag of FRFR
Related business
Manufacturer
Airbus Safran
Mission
Spacecraft
Bus & Motor
ESC-A, Unknown motor
Mass
~5,000 kg wet, ~5,000 kg dry
Launch date (UTC)
2016-06-18 (9 years ago)
Launch vehicle
Unknown
Launch site
French Guiana (FRGUI)
Object type
Payload
Rocket body
Debris
Shape & HBR
Cyl + 1 Nozzle, 3.5 m
Radar Cross Section
41.627 m², Large (>1 m²)

Expand to show TLE details & history
Last TLE update: 17 hours ago

TLE from 17 hours ago
0 ARIANE 5 R/B
1 41593U 16039C   25258.27438039  .00004680  00000-0  15784-2 0  9994
2 41593   6.1076  55.0897 7158710 146.9889 291.5650  2.42962177 78937
Epoch: 2025-09-15T06:35Z
TLE epoch observation values (Epoch: 2025-09-15T06:35:06.465Z)
Latitude
-0.00016°
Longitude
-38.01553°
Altitude
22,013.754 km
Speed
3.32 km/s
True Right ascension
03h 40m 58s
True Declination
0° 00' 01"
Sunlit
Object was in daylight at epoch
Visualization orbit readout
Latitude
Unknown
Longitude
Unknown
Altitude
Unknown
Speed
Unknown
Apparent Right ascension
Unknown
Apparent Declination
Unknown
Sunlit
N/A
Visualization observer readout
Local Sidereal Time
16:12:06
Azimuth
Unknown
Elevation
Unknown
Doppler factor
Unknown
Orbital elements
Apogee altitude
33,735.811 km
Perigee altitude
264.283 km
Semi-major axis
23,378.184 km
Eccentricity
0.71587
Inclination
6.1076°
RAAN
55.0897°
Arg. of periapsis
146.9889°
True anomaly
213.20205°
Mean anomaly
291.565°
Eccentric anomaly
252.45638°
Mean motion
0.60719 °/min
Orbital period
592.89 mins
BSTAR
0.0015784
Loading maneuver chart data...
Computing Atmospheric mass density...
Loading historical data...
Loading historical data...
Loading historical data...
Loading historical data...
Loading historical data...
Loading historical data...
Loading historical data...
Other satellites on launch #39 in the year 2016 (2016-06-18 UTC)

Documentation

Showing up to 5 results
|